Zurück zum Katalog

ONEWEB-0337

AktivKommunikationPO
NORAD 49203·PAYLOAD·🇬🇧 United Kingdom

Gestartet Sep 14, 2021 von Baikonur Cosmodrome

Loading…

Nächste Überflüge (nächste 24 Stunden)

TLE

AktuellSource: CelesTrak SupGP

Epoche: Sep 14, 2026, 22:29 UTC

1 49203C 21083T   26257.93731898  .00001024  00000+0  28076-2 0  2570
2 49203  87.8918 302.3760 0001767 100.9280 295.1411 13.13468101    15

Verfolge ONEWEB-0337 in Echtzeit mit AllMySat

Download on the App Store